User: anonymous   Login
Location: Rio Negrinho
(26.2394°S, 49.4999°W)
Time: 15:45:21
(UTC+00:00)
Language:

Centaur D-1AR AC-39 - Orbit

View from above orbital plane
View from above orbital plane
View from above satellite
View from above satellite

Ground track
Ground track

The orbit data is extracted from the following two-line orbital elements,

1 10025U 77041B   20224.54083656 -.00000086 +00000-0 +21142-4 0  9993
2 10025 021.4373 282.4543 7194732 245.7147 346.2940 02.22715603350364
Epoch (UTC): 11 August 2020 12:58:48
Eccentricity: 0.7194732
inclination: 21.4373°
perigee height: 570 km
apogee height: 36210 km
right ascension of ascending node: 282.4543°
argument of perigee: 245.7147°
revolutions per day: 2.22715603
mean anomaly at epoch: 346.2940°
orbit number at epoch: 35036

The dashed part of the orbit path shows where the satellite is in the earth's shadow,  

DLR